Location: Austin
(30.3000°N, 97.7500°W)
Time: 06:02:49
(UTC-05:00)

Centaur D-1A AC-31 - Pass Details

Date: 16 June 2025
Orbit: 576 x 36326 km, 27.8° (Epoch: 05 July)

Event Time Altitude Azimuth Distance (km) Brightness Sun altitude
Rises 20:35:03 0° 245° (WSW) 11,876 8.1 -0.9°
Reaches altitude 10° 20:51:40 10° 230° (SW) 15,120 8.4 -4.1°
Drops below altitude 10° 01:24:53 10° 220° (SW) 41,120 9.8 -36.3°
Enters shadow 04:35:01 - 233° (SW) 31,059 9.0 -20.6°
Exits shadow 05:55:31 - 234° (SW) 16,449 7.5 -7.1°
Maximum altitude 06:38:04 42° 173° (S) 2,573 4.1 0.9°
Sets 06:45:29 0° 92° (E) 3,308 6.1 2.3°
